Location: Albany
(35.0170°S, 117.8920°E)
Time: 16:48:16
(UTC+08:00)

Transit 2A - Pass Details

Date: 27 January 2021
Orbit: 601 x 958 km, 66.7° (Epoch: 02 March)

Event Time Altitude Azimuth Distance (km) Brightness Sun altitude
Rises 23:55:25 0° 201° (SSW) 3,552 10.4 -36.1°
Reaches altitude 10° 23:58:02 10° 194° (SSW) 2,643 9.5 -36.2°
Enters shadow 00:02:45 41° 152° (SSE) 1,363 7.5 -36.3°
Maximum altitude 00:03:59 45° 122° (ESE) 1,277 - -36.3°
Drops below altitude 10° 00:10:03 10° 50° (NE) 2,689 - -36.4°
Sets 00:12:43 0° 43° (NE) 3,619 - -36.4°
